Content
SEND FEEDBACK

Daily
Averages
Monthly
Summary
United States of America

GLENS FALLS, NEW YORK


Home > North America > United States > New York
Elevation: 321 feet     Latitude: 43 21N     Longitude: 073 37W

WEATHER
 
SELECT A DAY
Number of Records: 213,012;   Date Range: 1/1/95 - 7/29/14
 
SHARE

PRINT THIS DATA

[ ← Previous Day ]
WEATHER ALMANAC - MARCH 14, 2013
[ Next Day → ]
[ °C ]   °F
Weather ElementAverageHighLow
Temperature26.6 °F30.9 °F (1:53 am)23 °F (9:53 pm)
Dewpoint11 °F16 °F (1:53 am)3.9 °F (5:53 pm)
Humidity52.4 %65 % (9:53 pm)41 % (11:53 am)
Barometer29.86 in29.94 in (10:53 pm)29.81 in (4:53 am)
Wind Speed9.4 mph20.7 mph (12:53 pm)
Wind Gust27.6 mph (12:53 pm)
Weather ElementAverage
Visibility8.8 mi
Wind DirectionWSW (256.4 °)

Weather ElementTotal
Precipitation---
Heating Degree Days38.1 (Base 65)
Averaged from 28 records on March 14, 2013
WEATHER CONDITIONS BREAKOUT
WIND DIRECTION BREAKOUT
WEATHER BY HOUR - MARCH 14, 2013
[ °C ]   °F
Local TimeTemperatureDewpointHumidityBarometerVisibilityWind DirectionWind SpeedGust SpeedPrecipitationEventsConditions
1:53 AM30.9 °F16.0 °F54 %29.83 in10.0 miWSW (240°)3.5 mphPartly Cloudy
2:53 AM30.9 °F15.1 °F52 %29.83 in10.0 miWSW (250°)9.2 mphOvercast
3:53 AM30.0 °F15.1 °F54 %29.82 in10.0 miWSW (250°)11.5 mphOvercast
4:53 AM28.9 °F15.1 °F56 %29.81 in10.0 miWSW (240°)12.7 mph17.3 mphScattered Clouds
5:53 AM28.0 °F16.0 °F61 %29.81 in10.0 miWSW (240°)8.1 mphOvercast
6:53 AM28.0 °F14.0 °F56 %29.83 in10.0 miWest (280°)9.2 mphOvercast
7:53 AM27.0 °F14.0 °F58 %29.84 in10.0 miWest (280°)8.1 mph0.00 inOvercast
8:53 AM26.1 °F10.9 °F53 %29.85 in10.0 miWest (270°)8.1 mphOvercast
9:53 AM26.1 °F12.0 °F55 %29.85 in10.0 miSW (230°)8.1 mphOvercast
10:41 AM26.6 °F14.0 °F59 %29.82 in2.5 miWSW (250°)9.2 mph16.1 mph0.00 inSnowLight Snow
10:49 AM26.6 °F15.8 °F64 %29.82 in1.2 miVariable6.9 mph0.00 inSnowLight Snow
10:53 AM26.1 °F15.1 °F63 %29.85 in1.8 miWest (270°)6.9 mph0.00 inSnowLight Snow
11:01 AM26.6 °F15.8 °F64 %29.82 in2.5 miVariable6.9 mph0.00 inSnowLight Snow
11:12 AM26.6 °F14.0 °F59 %29.82 in8.0 miVariable4.6 mph0.00 inSnowLight Snow
11:21 AM26.6 °F12.2 °F55 %29.82 in10.0 miNW (310°)9.2 mph0.00 inOvercast
11:53 AM30.0 °F9.0 °F41 %29.84 in10.0 miWest (280°)12.7 mph20.7 mph0.00 inOvercast
12:53 PM28.9 °F8.1 °F41 %29.83 in10.0 miWNW (290°)20.7 mph27.6 mphMostly Cloudy
1:53 PM27.0 °F6.1 °F41 %29.84 in10.0 miWest (270°)12.7 mph24.2 mphOvercast
2:53 PM26.1 °F6.1 °F43 %29.85 in10.0 miNW (310°)16.1 mph24.2 mphOvercast
3:53 PM25.0 °F5.0 °F43 %29.87 in10.0 miWNW (290°)13.8 mph19.6 mphOvercast
4:53 PM24.1 °F5.0 °F44 %29.88 in10.0 miWest (280°)15.0 mph25.3 mphOvercast
5:53 PM25.0 °F3.9 °F41 %29.90 in10.0 miNW (310°)9.2 mphOvercast
6:53 PM24.1 °F5.0 °F44 %29.91 in10.0 miNW (310°)9.2 mphOvercast
7:53 PM25.0 °F6.1 °F45 %29.91 in10.0 miNNW (340°)4.6 mphOvercast
8:53 PM24.1 °F7.0 °F48 %29.92 in10.0 miNorth (360°)5.8 mphOvercast
9:53 PM23.0 °F12.9 °F65 %29.93 in10.0 miNNW (330°)6.9 mphOvercast
10:53 PM24.1 °F10.9 °F57 %29.94 in10.0 miNorth (360°)5.8 mphOvercast
11:53 PM24.1 °F8.1 °F51 %29.94 in10.0 miNNW (340°)8.1 mphOvercast
Hourly data recorded from KGFL, located miles away from Glens Falls, New York







STORIES FROM OUR PARTNERS